EWG25 EDDL-LICJ

Flight info

Callsign EWG25
Flight time N/A
Altitude 37000
Route DODEN7Z DODEN Y852 EDISA DCT TITIX N850 ODINA DCT GIANO
Aircraft A320/M-SDE3FGHIRWY/LB1

Departure

Time 2026-05-07 14:26
Airport Düsseldorf Airport (EDDL)

Arrival

Time N/A
Airport Falcone–Borsellino Airport (LICJ)
Time Latitude Longitude Altitude Speed Heading
2026-05-07 14:21 51.28080 6.76387 122 ft 2 kts 226°
2026-05-07 14:21 51.28088 6.76411 123 ft 2 kts 280°
2026-05-07 14:21 51.28084 6.76428 123 ft 0 kts 329°
2026-05-07 14:22 51.28104 6.76409 122 ft 5 kts 328°
2026-05-07 14:23 51.28131 6.76361 125 ft 12 kts 301°
2026-05-07 14:23 51.28192 6.76240 125 ft 13 kts 313°
2026-05-07 14:23 51.28183 6.76129 125 ft 10 kts 232°
2026-05-07 14:23 51.28140 6.76041 127 ft 12 kts 232°
2026-05-07 14:24 51.28082 6.75921 126 ft 18 kts 232°
2026-05-07 14:24 51.28006 6.75761 126 ft 18 kts 233°
2026-05-07 14:24 51.27901 6.75540 125 ft 28 kts 233°
2026-05-07 14:24 51.27841 6.75408 122 ft 5 kts 244°
2026-05-07 14:25 51.27886 6.75314 125 ft 20 kts 330°
2026-05-07 14:25 51.27975 6.75273 124 ft 16 kts
2026-05-07 14:25 51.28042 6.75367 122 ft 13 kts 54°
2026-05-07 14:25 51.28151 6.75598 126 ft 47 kts 52°
2026-05-07 14:26 51.28493 6.76315 125 ft 113 kts 52°
2026-05-07 14:26 51.28867 6.77098 126 ft 149 kts 53°
2026-05-07 14:26 51.29567 6.78586 331 ft 178 kts 52°
2026-05-07 14:26 51.30288 6.80208 1106 ft 178 kts 52°
2026-05-07 14:27 51.31036 6.81827 1758 ft 190 kts 50°
2026-05-07 14:27 51.31931 6.83591 2113 ft 217 kts 49°
2026-05-07 14:27 51.32909 6.85549 2529 ft 241 kts 50°
2026-05-07 14:27 51.33942 6.87744 3172 ft 253 kts 52°
2026-05-07 14:28 51.34790 6.90260 4015 ft 260 kts 69°
2026-05-07 14:28 51.35136 6.93117 4903 ft 266 kts 86°
2026-05-07 14:28 51.34970 6.96089 5752 ft 271 kts 98°
2026-05-07 14:28 51.34656 6.99074 6627 ft 273 kts 98°
2026-05-07 14:29 51.34349 7.02089 7421 ft 277 kts 98°
2026-05-07 14:29 51.34040 7.05145 8206 ft 281 kts 99°
2026-05-07 14:29 51.33724 7.08264 8993 ft 286 kts 99°
2026-05-07 14:29 51.33405 7.11422 9781 ft 290 kts 99°
2026-05-07 14:30 51.33049 7.14584 10403 ft 299 kts 105°
2026-05-07 14:30 51.32221 7.17756 10618 ft 322 kts 121°
2026-05-07 14:30 51.30853 7.20744 10787 ft 345 kts 132°
2026-05-07 14:30 51.29148 7.23397 11129 ft 359 kts 137°
2026-05-07 14:31 51.27334 7.26180 11767 ft 363 kts 136°
2026-05-07 14:31 51.25530 7.29026 12465 ft 366 kts 135°
2026-05-07 14:31 51.23719 7.31920 13109 ft 371 kts 135°
2026-05-07 14:31 51.21885 7.34859 13813 ft 374 kts 135°
2026-05-07 14:32 51.20040 7.37804 14403 ft 377 kts 136°
2026-05-07 14:32 51.18195 7.40728 15038 ft 380 kts 136°
2026-05-07 14:32 51.16303 7.43703 15700 ft 385 kts 136°